Princeton, MN

9:31 AM CDT on August 23, 2019 (GMT -0500)
Princeton Municipal

Weather History for KPNM - July, 2019

Change the Weather History Date:

Monday, July 22, 2019

  Actual Average Record
Temperature  
Mean Temperature 66 °F -  
Max Temperature 80 °F 79 °F 93 °F (2016)
Min Temperature 51 °F 57 °F 48 °F (2000)
Growing Degree Days 16 (Base 50)    
Moisture  
Dew Point 54 °F    
Average Humidity 68    
Maximum Humidity 100    
Minimum Humidity 34    
Precipitation  
Precipitation 0.00 in - - ()
Sea Level Pressure  
Sea Level Pressure 30.22 in    
Wind  
Wind Speed 3 mph (NW)    
Max Wind Speed 12 mph    
Max Gust Speed 17 mph    
Visibility 10 miles    
Events      
Averages and records for this station are not official NWS values.
T = Trace of Precipitation, MM = Missing Value Source: NWS Daily Summary

Daily Weather History Graph

Daily Weather History Graph

Search for Another Location

Airport or City:

Astronomy

Jul. 22, 2019 Rise Set
Actual Time 5:46 AM CDT 8:54 PM CDT
Civil Twilight 5:11 AM CDT 9:29 PM CDT
Nautical Twilight 4:25 AM CDT 10:15 PM CDT
Astronomical Twilight 3:29 AM CDT 11:11 PM CDT
Moon 11:59 PM CDT (7/22) 11:18 AM CDT (7/22)
Length of Visible Light 16h 18m
Length of Day
15h 07m
Waning Gibbous, 72% of the Moon is Illuminated
Jul 22
Waning Gibbous
Jul 24
Last Quarter
Jul 31
New
Aug 7
First Quarter
Aug 15
Full

Hourly Weather History & Observations

Time (CDT) Temp. Dew Point Humidity Pressure Visibility Wind Dir Wind Speed Gust Speed Precip Events Conditions
12:16 AM 60.8 °F 55.4 °F 82% 30.17 in 10.0 mi NW 3.5 mph - N/A   Clear
12:35 AM 59.0 °F 55.4 °F 88% 30.17 in 10.0 mi Calm Calm - N/A   Clear
12:36 AM 59.0 °F 55.4 °F 88% 30.17 in 10.0 mi Calm Calm - N/A   Clear
12:55 AM 57.2 °F 55.4 °F 94% 30.17 in 10.0 mi NW 3.5 mph - N/A   Clear
1:19 AM 57.2 °F 55.4 °F 94% 30.18 in 10.0 mi Calm Calm - N/A   Clear
1:37 AM 57.2 °F 55.4 °F 94% 30.18 in 10.0 mi Calm Calm - N/A   Clear
1:55 AM 57.2 °F 55.4 °F 94% 30.18 in 10.0 mi Calm Calm - N/A   Clear
1:56 AM 57.2 °F 55.4 °F 94% 30.18 in 10.0 mi Calm Calm - N/A   Clear
2:15 AM 55.4 °F 55.4 °F 100% 30.19 in 10.0 mi Calm Calm - N/A   Clear
2:16 AM 55.4 °F 55.4 °F 100% 30.19 in 10.0 mi Calm Calm - N/A   Clear
2:35 AM 55.4 °F 53.6 °F 94% 30.18 in 10.0 mi Calm Calm - N/A   Clear
2:58 AM 55.4 °F 53.6 °F 94% 30.19 in 10.0 mi Calm Calm - N/A   Clear
3:16 AM 55.4 °F 53.6 °F 94% 30.19 in 10.0 mi Calm Calm - N/A   Clear
3:35 AM 55.4 °F 53.6 °F 94% 30.19 in 10.0 mi Calm Calm - N/A   Clear
3:36 AM 55.4 °F 53.6 °F 94% 30.19 in 10.0 mi Calm Calm - N/A   Clear
3:55 AM 53.6 °F 51.8 °F 94% 30.19 in 10.0 mi Calm Calm - N/A   Clear
3:56 AM 53.6 °F 51.8 °F 94% 30.19 in 10.0 mi Calm Calm - N/A   Clear
4:19 AM 53.6 °F 51.8 °F 94% 30.20 in 10.0 mi Calm Calm - N/A   Clear
4:37 AM 51.8 °F 51.8 °F 100% 30.21 in 10.0 mi Calm Calm - N/A   Clear
4:55 AM 51.8 °F 51.8 °F 100% 30.21 in 10.0 mi Calm Calm - N/A   Clear
4:56 AM 51.8 °F 51.8 °F 100% 30.21 in 10.0 mi Calm Calm - N/A   Clear
5:15 AM 51.8 °F 50.0 °F 94% 30.22 in 10.0 mi Calm Calm - N/A   Clear
5:35 AM 51.8 °F 51.8 °F 100% 30.22 in 10.0 mi Calm Calm - N/A   Clear
5:40 AM 51.8 °F 51.8 °F 100% 30.22 in 10.0 mi Calm Calm - N/A   Clear
5:58 AM 51.8 °F 51.8 °F 100% 30.23 in 10.0 mi Calm Calm - N/A   Clear
6:16 AM 51.8 °F 50.0 °F 94% 30.23 in 10.0 mi Calm Calm - N/A   Clear
6:35 AM 51.8 °F 51.8 °F 100% 30.23 in 10.0 mi Calm Calm - N/A   Clear
6:55 AM 55.4 °F 53.6 °F 94% 30.24 in 10.0 mi Calm Calm - N/A   Clear
7:19 AM 57.2 °F 53.6 °F 88% 30.24 in 10.0 mi NW 4.6 mph - N/A   Clear
7:37 AM 59.0 °F 55.4 °F 88% 30.24 in 10.0 mi NW 4.6 mph - N/A   Scattered Clouds
7:55 AM 60.8 °F 55.4 °F 82% 30.24 in 10.0 mi NW 4.6 mph - N/A   Scattered Clouds
8:15 AM 62.6 °F 55.4 °F 77% 30.25 in 10.0 mi NW 3.5 mph - N/A   Mostly Cloudy
8:35 AM 64.4 °F 55.4 °F 73% 30.25 in 10.0 mi WNW 4.6 mph - N/A   Scattered Clouds
8:40 AM 66.2 °F 55.4 °F 68% 30.25 in 10.0 mi NW 5.8 mph - N/A   Scattered Clouds
8:58 AM 68.0 °F 55.4 °F 64% 30.25 in 10.0 mi NW 5.8 mph - N/A   Clear
9:16 AM 69.8 °F 55.4 °F 60% 30.25 in 10.0 mi NW 6.9 mph - N/A   Scattered Clouds
9:35 AM 71.6 °F 55.4 °F 57% 30.25 in 10.0 mi NW 6.9 mph - N/A   Scattered Clouds
9:55 AM 71.6 °F 57.2 °F 60% 30.25 in 10.0 mi NW 4.6 mph - N/A   Scattered Clouds
9:56 AM 71.6 °F 57.2 °F 60% 30.25 in 10.0 mi NW 4.6 mph - N/A   Scattered Clouds
10:19 AM 73.4 °F 55.4 °F 53% 30.24 in 10.0 mi NW 8.1 mph - N/A   Scattered Clouds
10:37 AM 73.4 °F 57.2 °F 57% 30.25 in 10.0 mi NW 9.2 mph - N/A   Clear
10:55 AM 73.4 °F 57.2 °F 57% 30.25 in 10.0 mi NNW 8.1 mph - N/A   Clear
10:56 AM 73.4 °F 57.2 °F 57% 30.25 in 10.0 mi NNW 8.1 mph - N/A   Clear
11:15 AM 75.2 °F 55.4 °F 50% 30.24 in 10.0 mi WNW 11.5 mph - N/A   Clear
11:35 AM 75.2 °F 55.4 °F 50% 30.25 in 10.0 mi NW 9.2 mph - N/A   Clear
11:39 AM 75.2 °F 53.6 °F 47% 30.25 in 10.0 mi NW 8.1 mph - N/A   Clear
11:56 AM 75.2 °F 53.6 °F 47% 30.25 in 10.0 mi North 6.9 mph - N/A   Scattered Clouds
12:15 PM 75.2 °F 51.8 °F 44% 30.25 in 10.0 mi NNW 10.4 mph - N/A   Scattered Clouds
12:35 PM 78.8 °F 51.8 °F 39% 30.25 in 10.0 mi NNW 10.4 mph - N/A   Scattered Clouds
12:56 PM 78.8 °F 51.8 °F 39% 30.25 in 10.0 mi NW 10.4 mph 17.3 mph N/A   Scattered Clouds
1:15 PM 77.0 °F 53.6 °F 44% 30.25 in 10.0 mi NW 9.2 mph - N/A   Scattered Clouds
1:35 PM 77.0 °F 51.8 °F 41% 30.24 in 10.0 mi North 5.8 mph - N/A   Scattered Clouds
1:36 PM 77.0 °F 51.8 °F 41% 30.24 in 10.0 mi NNW 5.8 mph - N/A   Scattered Clouds
1:59 PM 78.8 °F 51.8 °F 39% 30.24 in 10.0 mi NNW 8.1 mph - N/A   Scattered Clouds
2:17 PM 78.8 °F 51.8 °F 39% 30.24 in 10.0 mi NW 8.1 mph - N/A   Scattered Clouds
2:35 PM 78.8 °F 51.8 °F 39% 30.23 in 10.0 mi NW 11.5 mph 16.1 mph N/A   Clear
2:36 PM 78.8 °F 51.8 °F 39% 30.23 in 10.0 mi NNW 10.4 mph 16.1 mph N/A   Clear
2:55 PM 78.8 °F 51.8 °F 39% 30.23 in 10.0 mi North 9.2 mph - N/A   Clear
3:00 PM 78.8 °F 51.8 °F 39% 30.23 in 10.0 mi NNW 8.1 mph - N/A   Clear
3:18 PM 78.8 °F 51.8 °F 39% 30.23 in 10.0 mi WNW 9.2 mph - N/A   Clear
3:36 PM 78.8 °F 48.2 °F 34% 30.22 in 10.0 mi NW 4.6 mph - N/A   Clear
3:55 PM 80.6 °F 51.8 °F 37% 30.22 in 10.0 mi NNW 10.4 mph - N/A   Clear
4:15 PM 78.8 °F 51.8 °F 39% 30.22 in 10.0 mi NW 11.5 mph 16.1 mph N/A   Scattered Clouds
4:16 PM 78.8 °F 51.8 °F 39% 30.22 in 10.0 mi NW 11.5 mph 16.1 mph N/A   Scattered Clouds
4:39 PM 78.8 °F 51.8 °F 39% 30.21 in 10.0 mi WNW 6.9 mph 10.4 mph N/A   Scattered Clouds
4:57 PM 78.8 °F 53.6 °F 42% 30.21 in 10.0 mi WNW 8.1 mph - N/A   Scattered Clouds
5:15 PM 78.8 °F 51.8 °F 39% 30.21 in 10.0 mi NW 9.2 mph 17.3 mph N/A   Scattered Clouds
5:35 PM 78.8 °F 51.8 °F 39% 30.20 in 10.0 mi NNW 9.2 mph - N/A   Clear
5:55 PM 78.8 °F 51.8 °F 39% 30.20 in 10.0 mi NW 6.9 mph - N/A   Clear
5:59 PM 78.8 °F 51.8 °F 39% 30.20 in 10.0 mi NW 9.2 mph - N/A   Clear
6:17 PM 78.8 °F 51.8 °F 39% 30.19 in 10.0 mi NW 9.2 mph - N/A   Clear
6:35 PM 77.0 °F 53.6 °F 44% 30.19 in 10.0 mi WNW 9.2 mph - N/A   Clear
6:55 PM 77.0 °F 53.6 °F 44% 30.19 in 10.0 mi WNW 9.2 mph - N/A   Clear
6:56 PM 77.0 °F 53.6 °F 44% 30.19 in 10.0 mi WNW 8.1 mph - N/A   Clear
7:15 PM 75.2 °F 53.6 °F 47% 30.19 in 10.0 mi NW 5.8 mph - N/A   Clear
7:38 PM 75.2 °F 55.4 °F 50% 30.19 in 10.0 mi NW 5.8 mph - N/A   Clear
7:56 PM 73.4 °F 55.4 °F 53% 30.19 in 10.0 mi NW 4.6 mph - N/A   Clear
8:15 PM 71.6 °F 55.4 °F 57% 30.19 in 10.0 mi WNW 3.5 mph - N/A   Clear
8:16 PM 71.6 °F 55.4 °F 57% 30.19 in 10.0 mi WNW 3.5 mph - N/A   Clear
8:35 PM 71.6 °F 55.4 °F 57% 30.19 in 10.0 mi Calm Calm - N/A   Clear
8:59 PM 68.0 °F 57.2 °F 68% 30.20 in 10.0 mi Calm Calm - N/A   Clear
9:17 PM 66.2 °F 57.2 °F 73% 30.20 in 10.0 mi Calm Calm - N/A   Clear
9:35 PM 64.4 °F 57.2 °F 77% 30.20 in 10.0 mi Calm Calm - N/A   Clear
9:55 PM 62.6 °F 57.2 °F 82% 30.21 in 10.0 mi Calm Calm - N/A   Clear
10:15 PM 60.8 °F 55.4 °F 82% 30.21 in 10.0 mi Calm Calm - N/A   Clear
10:16 PM 60.8 °F 55.4 °F 82% 30.21 in 10.0 mi Calm Calm - N/A   Clear
10:39 PM 59.0 °F 57.2 °F 94% 30.22 in 10.0 mi Calm Calm - N/A   Clear
10:57 PM 57.2 °F 55.4 °F 94% 30.22 in 10.0 mi Calm Calm - N/A   Clear
11:15 PM 60.8 °F 57.2 °F 88% 30.22 in 10.0 mi Calm Calm - N/A   Clear
11:35 PM 60.8 °F 55.4 °F 82% 30.22 in 10.0 mi Calm Calm - N/A   Clear
11:36 PM 59.0 °F 55.4 °F 88% 30.22 in 10.0 mi Calm Calm - N/A   Clear
11:55 PM 60.8 °F 55.4 °F 82% 30.22 in 10.0 mi Calm Calm - N/A   Clear
11:59 PM 60.8 °F 55.4 °F 82% 30.22 in 10.0 mi West 3.5 mph - N/A   Clear